When you browse on this site, cookies collect data to enhance your experience and personalize the content and advertising you see.
Visit our Privacy Policy to learn more. By continuing to use the site, you agree to this use of cookies and data.
  • In Belgien
  • Länderverzeichnis
  • Für 7 Tage
  • Wassertemperatur
  • Wetterkarte
  • Widgets
  • user-avatar
    Anmelden

    Stündliche Wetter Brisbane

    Heute, 26 Mai, Dienstag

    Zeit Temperatur Niederschläge Wind Luftdruck Luftfeuchtigkeit
    00:00 +14°C° 0 mm 3 m/S 760 mmHg 66%
    01:00 +14°C° 0 mm 2 m/S 760 mmHg 67%
    02:00 +13°C° 0 mm 3 m/S 760 mmHg 68%
    03:00 +13°C° 0 mm 3 m/S 761 mmHg 70%
    04:00 +12°C° 0 mm 3 m/S 761 mmHg 70%
    05:00 +12°C° 0 mm 3 m/S 761 mmHg 71%
    06:00 +12°C° 0 mm 3 m/S 762 mmHg 72%
    07:00 +12°C° 0 mm 3 m/S 762 mmHg 73%
    08:00 +15°C° 0 mm 2 m/S 762 mmHg 66%
    09:00 +17°C° 0 mm 2 m/S 762 mmHg 59%
    10:00 +20°C° 0 mm 2 m/S 762 mmHg 49%
    11:00 +21°C° 0 mm 2 m/S 761 mmHg 44%
    12:00 +24°C° 0 mm 1 m/S 761 mmHg 40%
    13:00 +25°C° 0 mm 1 m/S 760 mmHg 35%
    14:00 +25°C° 0 mm 1 m/S 760 mmHg 37%
    15:00 +24°C° 0 mm 1 m/S 760 mmHg 39%
    16:00 +24°C° 0 mm 1 m/S 760 mmHg 41%
    17:00 +22°C° 0 mm 1 m/S 761 mmHg 46%
    18:00 +20°C° 0 mm 1 m/S 761 mmHg 50%
    19:00 +18°C° 0 mm 1 m/S 762 mmHg 55%
    20:00 +18°C° 0 mm 1 m/S 762 mmHg 55%
    21:00 +18°C° 0 mm 1 m/S 762 mmHg 55%
    22:00 +16°C° 0 mm 1 m/S 763 mmHg 55%
    23:00 +16°C° 0 mm 1 m/S 763 mmHg 57%

    Morgen, 27 Mai, Mittwoch

    Zeit Temperatur Niederschläge Wind Luftdruck Luftfeuchtigkeit
    00:00 +16°C° 0 mm 2 m/S 762 mmHg 59%
    01:00 +15°C° 0 mm 2 m/S 762 mmHg 60%
    02:00 +15°C° 0 mm 2 m/S 762 mmHg 62%
    03:00 +15°C° 0 mm 2 m/S 762 mmHg 64%
    04:00 +15°C° 0 mm 2 m/S 762 mmHg 66%
    05:00 +15°C° 0 mm 2 m/S 762 mmHg 68%
    06:00 +15°C° 0 mm 1 m/S 763 mmHg 69%
    07:00 +15°C° 0 mm 1 m/S 764 mmHg 71%
    08:00 +18°C° 0 mm 1 m/S 764 mmHg 66%
    09:00 +20°C° 0 mm 1 m/S 764 mmHg 60%
    10:00 +20°C° 0 mm 0 m/S 764 mmHg 55%
    11:00 +21°C° 0 mm 0 m/S 763 mmHg 53%
    12:00 +22°C° 0 mm 0 m/S 762 mmHg 51%
    13:00 +23°C° 0 mm 0 m/S 762 mmHg 49%
    14:00 +22°C° 0 mm 0 m/S 762 mmHg 52%
    15:00 +24°C° 0 mm 1 m/S 762 mmHg 55%
    16:00 +23°C° 0 mm 1 m/S 761 mmHg 58%
    17:00 +22°C° 0 mm 1 m/S 762 mmHg 63%
    18:00 +21°C° 0 mm 1 m/S 762 mmHg 67%
    19:00 +19°C° 0 mm 1 m/S 763 mmHg 72%
    20:00 +17°C° 0 mm 0 m/S 763 mmHg 74%
    21:00 +16°C° 0 mm 0 m/S 763 mmHg 75%
    22:00 +16°C° 0 mm 0 m/S 763 mmHg 77%
    23:00 +16°C° 0 mm 0 m/S 763 mmHg 78%

    übermorgen, 28 Mai, Donnerstag

    Zeit Temperatur Niederschläge Wind Luftdruck Luftfeuchtigkeit
    00:00 +18°C° 0 mm 1 m/S 763 mmHg 79%
    01:00 +16°C° 0 mm 1 m/S 763 mmHg 80%
    02:00 +16°C° 0 mm 1 m/S 763 mmHg 82%
    03:00 +16°C° 0 mm 1 m/S 763 mmHg 83%
    04:00 +15°C° 0 mm 1 m/S 763 mmHg 85%
    05:00 +15°C° 0 mm 1 m/S 763 mmHg 85%
    06:00 +15°C° 0 mm 1 m/S 764 mmHg 86%
    07:00 +15°C° 0 mm 1 m/S 764 mmHg 86%
    08:00 +19°C° 0 mm 1 m/S 764 mmHg 77%
    09:00 +21°C° 0 mm 1 m/S 764 mmHg 68%
    10:00 +23°C° 0 mm 1 m/S 764 mmHg 58%
    11:00 +24°C° 0 mm 1 m/S 763 mmHg 55%
    12:00 +25°C° 0 mm 1 m/S 763 mmHg 51%
    13:00 +26°C° 0 mm 1 m/S 762 mmHg 47%
    14:00 +26°C° 0 mm 1 m/S 762 mmHg 49%
    15:00 +25°C° 0 mm 1 m/S 762 mmHg 52%
    16:00 +24°C° 0 mm 1 m/S 762 mmHg 54%
    17:00 +23°C° 0 mm 1 m/S 763 mmHg 63%
    18:00 +21°C° 0 mm 1 m/S 763 mmHg 72%
    19:00 +20°C° 0 mm 1 m/S 763 mmHg 81%
    20:00 +19°C° 0.1 mm 1 m/S 764 mmHg 83%
    21:00 +19°C° 0.1 mm 1 m/S 764 mmHg 84%
    22:00 +16°C° 0.1 mm 0 m/S 764 mmHg 86%
    23:00 +18°C° 0 mm 1 m/S 764 mmHg 86%

    29 Mai, Freitag

    Zeit Temperatur Niederschläge Wind Luftdruck Luftfeuchtigkeit
    00:00 +16°C° 0 mm 1 m/S 764 mmHg 86%
    01:00 +16°C° 0 mm 2 m/S 764 mmHg 87%
    02:00 +16°C° 0 mm 2 m/S 764 mmHg 87%
    03:00 +15°C° 0 mm 2 m/S 764 mmHg 88%
    04:00 +15°C° 0 mm 2 m/S 764 mmHg 89%
    05:00 +15°C° 0 mm 2 m/S 765 mmHg 88%
    06:00 +15°C° 0 mm 2 m/S 765 mmHg 88%
    07:00 +15°C° 0 mm 2 m/S 766 mmHg 88%
    08:00 +17°C° 0 mm 2 m/S 766 mmHg 79%
    09:00 +19°C° 0 mm 2 m/S 766 mmHg 71%
    10:00 +21°C° 0 mm 3 m/S 766 mmHg 62%
    11:00 +22°C° 0 mm 3 m/S 766 mmHg 57%
    12:00 +23°C° 0 mm 4 m/S 765 mmHg 52%
    13:00 +25°C° 0 mm 4 m/S 765 mmHg 48%
    14:00 +23°C° 0.1 mm 4 m/S 765 mmHg 51%
    15:00 +23°C° 0.1 mm 4 m/S 765 mmHg 54%
    16:00 +22°C° 0.1 mm 4 m/S 765 mmHg 57%
    17:00 +20°C° 0 mm 4 m/S 765 mmHg 63%
    18:00 +19°C° 0 mm 4 m/S 766 mmHg 68%
    19:00 +18°C° 0 mm 4 m/S 767 mmHg 73%
    20:00 +17°C° 0 mm 3 m/S 767 mmHg 75%
    21:00 +17°C° 0 mm 3 m/S 767 mmHg 77%
    22:00 +16°C° 0 mm 3 m/S 767 mmHg 79%
    23:00 +16°C° 0 mm 3 m/S 767 mmHg 81%

    30 Mai, Samstag

    Zeit Temperatur Niederschläge Wind Luftdruck Luftfeuchtigkeit
    00:00 +15°C° 0 mm 2 m/S 767 mmHg 82%
    01:00 +15°C° 0 mm 2 m/S 767 mmHg 84%
    02:00 +15°C° 0 mm 2 m/S 767 mmHg 85%
    03:00 +14°C° 0 mm 2 m/S 767 mmHg 86%
    04:00 +14°C° 0 mm 2 m/S 767 mmHg 87%
    05:00 +14°C° 0 mm 2 m/S 767 mmHg 87%
    06:00 +14°C° 0 mm 2 m/S 768 mmHg 87%
    07:00 +14°C° 0 mm 2 m/S 768 mmHg 87%
    08:00 +16°C° 0 mm 2 m/S 768 mmHg 78%
    09:00 +18°C° 0 mm 2 m/S 768 mmHg 69%
    10:00 +20°C° 0 mm 3 m/S 768 mmHg 61%
    11:00 +21°C° 0 mm 3 m/S 767 mmHg 58%
    12:00 +22°C° 0 mm 4 m/S 767 mmHg 55%
    13:00 +23°C° 0 mm 4 m/S 766 mmHg 52%
    14:00 +22°C° 0 mm 4 m/S 766 mmHg 53%
    15:00 +22°C° 0 mm 4 m/S 766 mmHg 55%
    16:00 +22°C° 0 mm 4 m/S 766 mmHg 56%
    17:00 +20°C° 0 mm 4 m/S 766 mmHg 63%
    18:00 +19°C° 0 mm 3 m/S 767 mmHg 70%
    19:00 +18°C° 0 mm 3 m/S 767 mmHg 77%
    20:00 +17°C° 0.1 mm 2 m/S 767 mmHg 79%
    21:00 +17°C° 0.1 mm 2 m/S 767 mmHg 81%
    22:00 +16°C° 0.1 mm 2 m/S 767 mmHg 84%
    23:00 +16°C° 0.1 mm 2 m/S 767 mmHg 84%

    31 Mai, Sonntag

    Zeit Temperatur Niederschläge Wind Luftdruck Luftfeuchtigkeit
    00:00 +16°C° 0.1 mm 2 m/S 766 mmHg 84%
    01:00 +15°C° 0.1 mm 2 m/S 766 mmHg 84%
    02:00 +16°C° 0.1 mm 2 m/S 766 mmHg 83%
    03:00 +16°C° 0.1 mm 1 m/S 766 mmHg 81%
    04:00 +16°C° 0.1 mm 1 m/S 766 mmHg 80%
    05:00 +16°C° 0 mm 1 m/S 766 mmHg 80%
    06:00 +15°C° 0 mm 1 m/S 766 mmHg 81%
    07:00 +15°C° 0 mm 1 m/S 767 mmHg 82%
    08:00 +18°C° 0 mm 1 m/S 767 mmHg 73%
    09:00 +20°C° 0 mm 1 m/S 767 mmHg 64%
    10:00 +23°C° 0 mm 1 m/S 767 mmHg 56%
    11:00 +24°C° 0 mm 1 m/S 766 mmHg 52%
    12:00 +24°C° 0 mm 1 m/S 766 mmHg 48%
    13:00 +25°C° 0 mm 1 m/S 765 mmHg 44%
    14:00 +25°C° 0 mm 1 m/S 765 mmHg 47%
    15:00 +24°C° 0 mm 1 m/S 764 mmHg 50%
    16:00 +23°C° 0 mm 1 m/S 764 mmHg 52%
    17:00 +22°C° 0 mm 1 m/S 764 mmHg 60%
    18:00 +20°C° 0 mm 1 m/S 765 mmHg 68%
    19:00 +19°C° 0 mm 1 m/S 765 mmHg 76%
    20:00 +18°C° 0 mm 1 m/S 765 mmHg 78%
    21:00 +18°C° 0 mm 1 m/S 765 mmHg 81%
    22:00 +16°C° 0 mm 1 m/S 765 mmHg 83%
    23:00 +16°C° 0 mm 1 m/S 765 mmHg 84%
    Mehr zeigen